Regional Weather Roundup
Issued by NWS Wakefield, VA

Home | Current Version | Previous Version | Graphics & Text | Print | Product List | Glossary On
Versions: 1 2 3 4 5 6 7 8 9 10 11 12 13 14 15 16 17 18 19 20 21 22 23 24 25 26 27
000
ASUS41 KAKQ 200315
RWRAKQ

REGIONAL WEATHER ROUNDUP
NATIONAL WEATHER SERVICE WAKEFIELD VA
1100 PM EDT TUE SEP 19 2017

Note: "fair" indicates few or no clouds below 12,000 feet with no
significant weather and/or obstructions to visibility. * = Denotes
station may not report precipitation (e.g., rain,snow,etc.),
thunder or fog.

VAZ042-051-052>054-056-200400-
NORTHERN VIRGINIA

CITY           SKY/WX    TMP DP  RH WIND       PRES   REMARKS
WASH NATIONAL  PTCLDY    75  66  73 N12       29.92S
DULLES         PTCLDY    71  67  87 N5        29.94S
FORT BELVOIR   PTCLDY    72  64  76 NW7       29.91S
QUANTICO       CLEAR     73  68  84 N6        29.93R
FREDERICKSBRG* CLEAR     70  66  87 NW3       29.92S
STAFFORD*      CLEAR     67  67  99 NW5       29.97S
WARRENTON      CLEAR     63  60  90 CALM      29.93S FOG
CULPEPER*      CLEAR     66  65  97 NW3       29.95S
MANASSAS*      CLEAR     68  64  87 CALM      29.94R
LEESBURG*      CLEAR     70  68  94 N3        29.96S
WINCHESTER     CLEAR     61  61 100 CALM      29.97S
FRONT ROYAL*   CLEAR     64  64 100 CALM      29.96S
LURAY*         CLEAR     64  63  94 CALM      29.98S
$$

VAZ048-049-060>072-079>083-200400-
CENTRAL AND SOUTH CENTRAL VIRGINIA

CITY           SKY/WX    TMP DP  RH WIND       PRES   REMARKS
RICHMOND       PTCLDY    72  64  76 N9        29.92R
CHESTERFIELD*  NOT AVBL
PETERSBURG*    CLEAR     64  64 100 NW3       29.93S
HANOVER        CLEAR     70  64  81 NW3       29.94R
TAPPAHANNOCK*  CLEAR     74  64  69 CALM      29.92S
QUINTON*       MOCLDY    70  68  93 W5        29.91S
CHARLOTTSVILLE CLEAR     69  66  90 W3        29.96S
GORDONSVILLE*  CLEAR     65  65 100 CALM      29.95S
ORANGE*        CLEAR     63  61  94 CALM      29.95S
LOUISA*        CLEAR     63  61  94 CALM      29.95R
BUMPASS*       NOT AVBL
FARMVILLE*     CLEAR     65  65 100 CALM      29.95R
CREWE*         FAIR      65  65 100 CALM      29.95R
FORT PICKETT*  FAIR      66  66 100 CALM      29.95R
CHASE CITY*    FAIR      65  65 100 CALM      29.96R
CLARKSVILLE*   FAIR      64  64 100 CALM      29.95S
SOUTH HILL*    CLEAR     64  64 100 CALM      30.01R
LAWRENCEVILLE* FAIR      68  66  94 CALM      29.94S
EMPORIA*       CLEAR     63  63 100 CALM      29.94S
$$

VAZ088>098-200400-
SOUTHEAST VIRGINIA

CITY           SKY/WX    TMP DP  RH WIND       PRES   REMARKS
NORFOLK        CLOUDY    74  69  85 VRB3      29.89R
VIRGINIA BEACH CLOUDY    73  67  81 NW6       29.87R
NORFOLK NAVAL  MOCLDY    74  68  81 NW10      29.91R
WEST POINT*    CLOUDY    72  70  94 CALM      29.91S
SALUDA*        MOCLDY    72  71  96 NW3       29.90R
NEWPORT NEWS   CLOUDY    73  68  84 W6        29.90R
LANGLEY AFB    PTCLDY    72  69  90 NW6       29.89R
FORT EUSTIS    MOCLDY    73  69  86 NW5       29.87S
WILLIAMSBURG*  CLEAR     73  70  88 CALM      29.91S
HR EXEC AP*    CLOUDY    71  69  93 CALM      29.90S
FRANKLIN*      CLOUDY    68  65  92 NE3       29.92R
US460-WAKEFLD  CLOUDY    71  67  87 CALM      29.91S
$$

VAZ020-022-025-037-045-200400-
WEST CENTRAL AND SOUTHWEST VIRGINIA

CITY           SKY/WX    TMP DP  RH WIND       PRES   REMARKS
STAUNTON*      CLEAR     62  60  92 CALM      30.02R
WAYNESBORO*    CLEAR     64  64  98 CALM      30.01R
HOT SPRINGS VA MOCLDY    65  55  71 CALM      30.13S
LYNCHBURG      CLEAR     65  62  90 CALM      29.99R
DANVILLE       CLEAR     66  66 100 CALM      29.98R
SOUTH BOSTON*  FAIR      66  64  96 CALM      29.97R
MARTINSVILLE   CLEAR     65  64  97 CALM      30.01S
ROANOKE        PTCLDY    72  66  81 CALM      30.01R
BLACKSBURG     CLOUDY    66  63  88 CALM      30.07S
DUBLIN*        CLOUDY    67  65  93 CALM      30.07R
MARION*        CLEAR     64  61  90 CALM      30.11R
HILLSVILLE*    CLEAR     65  61  86 CALM      30.08R
RICHLANDS*     FAIR      68  60  74 CALM      30.09R
WISE*          CLEAR     64  59  82 CALM      30.09S
ABINGDON*      CLEAR     66  63  89 CALM      30.06R
$$

MDZ021>025-VAZ099-100-200400-
SOUTHERN MARYLAND AND THE DELMARVA PENINSULA

CITY           SKY/WX    TMP DP  RH WIND       PRES   REMARKS
PATUXENT RIVER CLOUDY    73  69  87 N8        29.89F
BAY BRIDGE APT CLOUDY    75  70  83 N6        29.90R
LEONARDTOWN    CLOUDY    70  68  94 CALM      29.91F
DOVER          CLOUDY    71  71 100 N15       29.85S
GEORGETOWN     CLOUDY    72  66  81 N9        29.85S
EASTON         CLOUDY    73  66  80 N6        29.92F
CAMBRIDGE      CLOUDY    70  68  94 VRB5      29.88S
SALISBURY      CLOUDY    70  68  93 N13       29.84F
OCEAN CITY     CLOUDY    69  68  96 N14G23    29.82S
WALLOPS ISLAND CLOUDY    70  68  93 NW12G22   29.84F
ACCOMACK*      CLOUDY    71  69  93 N9G16     29.86F
$$

NCZ012>017-030>032-200400-
NORTH CENTRAL AND EASTERN NORTH CAROLINA

CITY           SKY/WX    TMP DP  RH WIND       PRES   REMARKS
ROANOKE RAPIDS FAIR      66  64  94 MISG      29.94R
RALEIGH        PTCLDY    67  65  93 CALM      29.96S
ELIZABETH CITY CLOUDY    72  70  93 W7        29.89F
AHOSKIE*         N/A     67  66  97 CALM      29.93R
EDENTON*       MOCLDY    75  69  82 CALM      29.92R
CURRITUCK*     CLOUDY    71  68  90 W5        29.90R
KILL DEVIL HLS CLOUDY    71  65  81 CALM      29.88R
MANTEO         CLOUDY    72  67  83 NW6       29.90R
CAPE HATTERAS  CLOUDY    75  69  81 NW8       29.91R
TARBORO*       NOT AVBL
GOLDSBORO      CLEAR     69  69 100 CALM      29.93R
WASHINGTON     CLEAR     70  66  87 CALM      29.93S
GREENVILLE     CLEAR     68  68 100 CALM      29.96R
NEW BERN       CLEAR     69  68  96 CALM      29.95R
WILMINGTON     CLEAR     70  68  93 CALM      29.95S
$$

VAZ048-200400-
ELSEWHERE

CITY           SKY/WX    TMP DP  RH WIND       PRES   REMARKS
HARRISBURG PA  PTCLDY    69  65  86 NW7       29.94R
BALTIMORE      LGT RAIN  74  66  76 NW6       29.91S
ANNAPOLIS      CLOUDY    78  70  76 NW7       29.90S
ANDREWS AFB    PTCLDY    72  63  73 N8        29.91S
PHILADELPHIA   CLOUDY    72  65  78 N14       29.87F
HENDERSON NC   CLEAR     66  61  85 CALM      29.96S
GREENSBORO     CLEAR     71  66  84 SW3       29.99R
ROCKY MOUNT    CLEAR     66  66 100 CALM      29.95R
$$

VAZ100-200400-
MARINE

STATION/POSITION TIME  TEMP    WIND        PRES    WAVE   SWELL
                       AIR SEA DIR/SP/G            HT/PER HT/PER
                 (UTC) (F)     (DEG/KT/KT) (MB)    (FT/S) (FT/S)
BRANDYWINE LGT   0242   72      10/ 29/ 34 1010.1S
CAPE MAY NJ      0248   70 73   10/  6/ 16 1009.2S
LEWES DE         0242   72 72   10/ 24/ 29 1009.9F
15NM E FENWICK I 0250   71 71  340/ 25/ 31 1007.7R  11/10   8/10
OCEAN-CITY-INLET 0242   71 73  360/ 17/ 21 1009.8R
WACHAPREAGUE VA  0242   70 74  330/  4/  9 1010.9F
THOMAS POINT MD  0300   76 75  360/ 13/ 14   N/A
GOOSES REEF MD   0300   75 74   20/ 12/ 16 1012.7
COVE POINT MD    0242   74      20/ 16/ 21 1012.8F
SOLOMONS ISLAND  0242   75 76   20/  3/  5 1011.8F
BISHOPS HEAD MD  0242   71 74  340/  8/ 11 1011.8F
PINEY POINT MD   0242           10/  6/  7   N/A
POTOMAC MD       0300   72 75   10/  8/ 12 1011.2    1/ 2
CAMBRIDGE MD     0242   72 76              1012.5F
LEWISETTA VA     0242   75 75   50/  6/ 11 1012.1R
RAPPAHANNOCK LGT 0242           10/ 23/ 26 1012.0S
STINGRAY PT      0300   75 75   40/ 21/ 27 1012.1    2/ 3
YORK RVR RNG VA  0242   74     340/ 12/ 14 1012.4R
YORKTOWN VA      0242   73 76  280/  7/ 10 1012.0R
JAMESTOWN VA     0300      78  350/  4/  4   N/A     0
DOMINION TERM VA 0242   74     330/  6/ 12 1012.3R
KIPTOPEKE VA     0242      74  350/ 14/ 17   N/A
CHES BAY BRIDGE  0242   75 74  320/ 12/ 18 1011.7R
CAPE HENRY VA    0242   74     320/ 16/ 18   N/A
WILLOUBY STN VA  0242   73     310/ 11/ 12 1012.2R
S CRANEY ISL VA  0242   74     290/  4/ 10 1012.0R
CAPE HENRY BUOY  0300      74                N/A     7/11   3/11
1ST LANDING BUOY 0300   75 74              1011.5    4/ 6
64NM E OF VA BCH 0250   71 71  320/ 23/ 27 1008.8R  13/11  10/11
DUCK PIER NC     0242   73 74  280/ 11/ 15 1011.5R
44100 DUCK FRF   0205      74                N/A    11/11   5/11
44056 DUCK FRF   0300      75                N/A     8/11   5/11
OREGON INLET NC  0242   73 74  310/ 10/ 17 1011.9R
HATTERAS NC      0242   75 75  330/ 12/ 17 1012.8R
DIAMOND SHLS NC  0250   75 74  330/ 16/ 19 1012.4R   7/10   7/10
CAPE LOOKOUT NC  0300   75     280/  1/  1 1013.4S
$$




USA.gov is the U.S. government's official web portal to all federal, state and local government web resources and services.